This demonstration page uses our WeatherBlox Daily Observations layout. Learn more.

Left ArrowRight Arrow

Hourly Observations for May 24, 2017

Temp ( °F °C ) Dew Point ( °F °C ) Humidity (%) Winds ( mph kmh ) Pressure ( in mb ) Visibility ( mi km ) Precip ( " mm )
12:52 am 00:52 Mostly Cloudy 55 12.8 49 9.4 80 80 WNW 6 9 29.72 1007 10 16 0.00 0.00
1:52 am 01:52 Cloudy 55 12.8 49 9.4 80 80 WNW 7 11 29.71 1006 10 16 0.00 0.00
2:52 am 02:52 Mostly Cloudy 53 11.7 49 9.4 86 86 WNW 7 11 29.69 1006 10 16 0.00 0.00
3:52 am 03:52 Mostly Cloudy 52 11.1 49 9.4 89 89 NW 5 7 29.69 1005 10 16 0.00 0.00
4:52 am 04:52 Cloudy 53 11.7 50 10 89 89 NW 7 11 29.67 1005 10 16 0.00 0.00
5:52 am 05:52 Cloudy 52 11.1 50 10 93 93 NW 7 11 29.67 1005 10 16 0.00 0.00
6:13 am 06:13 Cloudy 52 11.1 49 9.4 89 89 NW 9 15 29.68 1005 10 16 0.00 0.00
6:45 am 06:45 Mostly Cloudy 52 11.1 49 9.4 89 89 NW 7 11 29.68 1005 10 16 0.00 0.00
6:52 am 06:52 Cloudy 52 11.1 49 9.4 89 89 NW 9 15 29.67 1005 10 16 0.00 0.00
7:52 am 07:52 Cloudy 52 11.1 48 8.9 86 86 NW 10 17 29.68 1005 10 16 0.00 0.00
8:50 am 08:50 Mostly Cloudy 54 12 46 8 77 77 NW 9 15 29.68 1005 10 16 0.00 0.00
8:52 am 08:52 Mostly Cloudy 54 12.2 47 8.3 77 77 NW 9 15 29.68 1005 10 16 0.00 0.00
9:50 am 09:50 Partly Cloudy 55 13 46 8 72 72 WNW 10 17 29.68 1005 10 16 0.00 0.00
9:52 am 09:52 Partly Cloudy 56 13.3 47 8.3 72 72 NW 10 17 29.67 1005 10 16 0.00 0.00
10:42 am 10:42 Mostly Cloudy 56 13.3 45 7.2 67 67 WNW 12 19 29.65 1004 10 16 0.00 0.00
10:52 am 10:52 Cloudy 56 13.3 44 6.7 65 65 WNW 12 19 29.67 1005 10 16 0.00 0.00
11:52 am 11:52 Cloudy 56 13.3 45 7.2 67 67 WNW 12 19 29.67 1005 10 16 0.00 0.00
12:52 pm 12:52 Cloudy 57 13.9 46 7.8 67 67 WNW 10 17 29.66 1004 10 16 0.00 0.00
1:52 pm 13:52 Cloudy 58 14.4 49 9.4 72 72 WNW 9 15 29.66 1005 10 16 0.00 0.03
2:32 pm 14:32 Cloudy with Light Rain 56 13.3 52 11.1 87 87 W 14 22 29.65 1004 10 16 0.00 0.03
2:52 pm 14:52 Cloudy with Light Rain 57 13.9 52 11.1 83 83 WNW 10 17 29.66 1004 10 16 0.00 0.03
3:52 pm 15:52 Cloudy 59 15 52 11.1 78 78 WNW 14 22 29.65 1004 10 16 0.04 1.02
4:52 pm 16:52 Cloudy with Rain 55 12.8 51 10.6 87 87 NNW 12 19 29.66 1004 4 6 0.04 1.02
5:52 pm 17:52 Cloudy 57 13.9 52 11.1 83 83 NW 10 17 29.66 1004 10 16 0.00 0.03
6:52 pm 18:52 Mostly Cloudy 58 14.4 52 11.1 81 81 NW 8 13 29.67 1005 10 16 0.00 0.00
7:52 pm 19:52 Cloudy 57 13.9 53 11.7 87 87 NW 6 9 29.67 1005 10 16 0.00 0.00
8:52 pm 20:52 Clear 55 12.8 52 11.1 90 90 NW 3 6 29.67 1005 10 16 0.00 0.00
9:52 pm 21:52 Cloudy 56 13.3 51 10.6 84 84 WNW 3 6 29.68 1005 10 16 0.00 0.00
10:52 pm 22:52 Clear 53 11.7 50 10 89 89 Calm 29.70 1006 10 16 0.00 0.00
11:52 pm 23:52 Clear 50 10 48 8.9 93 93 Calm 29.70 1006 10 16 0.00 0.00

Powered by AerisWeather